,,Stat6,,Stat2,,Stat8,,Stat9,,Stat10,,Wind1,,Wind1,
time,status,PA1M_AVG,status,PR1M_SUM,status,RH1M_AVG,status,SR1M_AVG,status,TA1M_AVG,status,W1dAve1m,status,W1sAve1m,
2005-03-17, 16:08:00,VALID,917.474,VALID,0,VALID,59.3738,VALID,599.695,VALID,28.2192,VALID,30,VALID,0,
2005-03-17, 16:09:00,VALID,917.485,VALID,0,VALID,59.9384,VALID,607.506,VALID,28.3292,VALID,358,VALID,0.531808,
2005-03-17, 16:10:00,VALID,917.476,VALID,0,VALID,59.3839,VALID,608.287,VALID,28.4382,VALID,312,VALID,0.318452,
2005-03-17, 16:11:00,VALID,917.47,VALID,0,VALID,57.6927,VALID,612.346,VALID,28.5514,VALID,211,VALID,0.40293,
2005-03-17, 16:12:00,VALID,917.461,VALID,0,VALID,57.4638,VALID,618.646,VALID,28.6129,VALID,172,VALID,0.548921,
2005-03-17, 16:13:00,VALID,917.452,VALID,0,VALID,56.6538,VALID,623.978,VALID,28.6614,VALID,185,VALID,0.887847,
2005-03-17, 16:14:00,VALID,917.45,VALID,0,VALID,57.6927,VALID,638.496,VALID,28.7322,VALID,156,VALID,1.70011,
2005-03-17, 16:15:00,VALID,917.449,VALID,0,VALID,56.6182,VALID,647.021,VALID,28.6035,VALID,138,VALID,1.23273,
2005-03-17, 16:16:00,VALID,917.455,VALID,0,VALID,58.7926,VALID,651.419,VALID,28.34,VALID,143,VALID,1.25462,
2005-03-17, 16:17:00,VALID,917.438,VALID,0,VALID,59.0953,VALID,655.732,VALID,28.2049,VALID,167,VALID,1.03888,
2005-03-17, 16:18:00,VALID,917.431,VALID,0,VALID,58.6706,VALID,665.309,VALID,28.253,VALID,153,VALID,0.8484,
2005-03-17, 16:19:00,VALID,917.416,VALID,0,VALID,59.0126,VALID,664.358,VALID,28.2631,VALID,145,VALID,1.21733,
2005-03-17, 16:20:00,VALID,917.404,VALID,0,VALID,59.8621,VALID,661.335,VALID,28.1847,VALID,173,VALID,0.863839,
2005-03-17, 16:21:00,VALID,917.372,VALID,0,VALID,60.2524,VALID,641.807,VALID,28.243,VALID,99,VALID,0.676054,
2005-03-17, 16:22:00,VALID,917.374,VALID,0,VALID,60.1316,VALID,643.047,VALID,28.2786,VALID,151,VALID,1.84805,
2005-03-17, 16:23:00,VALID,917.373,VALID,0,VALID,59.7324,VALID,640.619,VALID,28.119,VALID,166,VALID,1.62035,
2005-03-17, 16:24:00,VALID,917.358,VALID,0,VALID,59.9612,VALID,631.857,VALID,28.0338,VALID,168,VALID,1.16699,
2005-03-17, 16:25:00,VALID,917.328,VALID,0,VALID,59.4984,VALID,617.474,VALID,27.995,VALID,123,VALID,1.22031,
2005-03-17, 16:26:00,VALID,917.317,VALID,0,VALID,60.7992,VALID,622.874,VALID,27.8527,VALID,158,VALID,1.12682,
2005-03-17, 16:27:00,VALID,917.316,VALID,0,VALID,61.4744,VALID,631.755,VALID,27.8559,VALID,155,VALID,0.949491,
2005-03-17, 16:28:00,VALID,917.31,VALID,0,VALID,59.5302,VALID,627.917,VALID,27.9238,VALID,146,VALID,1.02077,
2005-03-17, 16:29:00,VALID,917.296,VALID,0,VALID,59.6764,VALID,625.591,VALID,27.953,VALID,125,VALID,0.709302,
2005-03-17, 16:30:00,VALID,917.28,VALID,0,VALID,57.9343,VALID,586.025,VALID,27.93,VALID,204,VALID,0.811806,
2005-03-17, 16:31:00,VALID,917.272,VALID,0,VALID,58.2802,VALID,557.956,VALID,27.8653,VALID,198,VALID,1.04013,
2005-03-17, 16:32:00,VALID,917.252,VALID,0,VALID,59.5111,VALID,489.829,VALID,27.8915,VALID,163,VALID,1.25114,
2005-03-17, 16:33:00,VALID,917.22,VALID,0,VALID,60.0757,VALID,458.33,VALID,27.8908,VALID,189,VALID,0.552144,
2005-03-17, 16:34:00,VALID,917.23,VALID,0,VALID,58.4925,VALID,475.073,VALID,28.0238,VALID,175,VALID,0.734738,
2005-03-17, 16:35:00,VALID,917.227,VALID,0,VALID,59.1538,VALID,468.705,VALID,28.1765,VALID,147,VALID,1.26953,
2005-03-17, 16:36:00,VALID,917.232,VALID,0,VALID,58.7036,VALID,492.512,VALID,28.1603,VALID,171,VALID,0.808594,
2005-03-17, 16:37:00,VALID,917.22,VALID,0,VALID,57.1268,VALID,549.686,VALID,28.0813,VALID,196,VALID,1.00712,
2005-03-17, 16:38:00,VALID,917.228,VALID,0,VALID,56.753,VALID,505.333,VALID,28.1039,VALID,202,VALID,0.528942,
2005-03-17, 16:39:00,VALID,917.223,VALID,0,VALID,57.1078,VALID,491.697,VALID,28.147,VALID,202,VALID,0.328307,
2005-03-17, 16:40:00,VALID,917.222,VALID,0,VALID,57.2883,VALID,564.698,VALID,28.2858,VALID,166,VALID,0.863867,
2005-03-17, 16:41:00,VALID,917.211,VALID,0,VALID,56.2456,VALID,591.663,VALID,28.4317,VALID,139,VALID,0.652439,
2005-03-17, 16:42:00,VALID,917.216,VALID,0,VALID,58.5421,VALID,505.74,VALID,28.4123,VALID,85,VALID,0.679324,
2005-03-17, 16:43:00,VALID,917.204,VALID,0,VALID,59.7438,VALID,512.363,VALID,28.3404,VALID,44,VALID,0.698583,
2005-03-17, 16:44:00,VALID,917.198,VALID,0,VALID,59.0546,VALID,548.6,VALID,28.2405,VALID,35,VALID,0.993331,
2005-03-17, 16:45:00,VALID,917.184,VALID,0,VALID,60.9175,VALID,538.751,VALID,28.1916,VALID,38,VALID,1.11594,
2005-03-17, 16:46:00,VALID,917.178,VALID,0,VALID,61.402,VALID,472.899,VALID,28.2311,VALID,19,VALID,1.28001,
2005-03-17, 16:47:00,VALID,917.177,VALID,0,VALID,60.578,VALID,497.64,VALID,28.3825,VALID,74,VALID,0.806176,
2005-03-17, 16:48:00,VALID,917.173,VALID,0,VALID,59.5136,VALID,613.908,VALID,28.4507,VALID,108,VALID,1.04649,
2005-03-17, 16:49:00,VALID,917.159,VALID,0,VALID,59.1131,VALID,650.909,VALID,28.4076,VALID,164,VALID,0.543786,
2005-03-17, 16:50:00,VALID,917.152,VALID,0,VALID,57.1395,VALID,647.853,VALID,28.4648,VALID,182,VALID,0.855755,
2005-03-17, 16:51:00,VALID,917.141,VALID,0,VALID,56.4275,VALID,648.905,VALID,28.5917,VALID,176,VALID,0.848133,
2005-03-17, 16:52:00,VALID,917.126,VALID,0,VALID,57.7258,VALID,633.606,VALID,28.7146,VALID,97,VALID,0.990141,
2005-03-17, 16:53:00,VALID,917.133,VALID,0,VALID,57.8834,VALID,636.934,VALID,28.5625,VALID,52,VALID,1.25345,
2005-03-17, 16:54:00,VALID,917.118,VALID,0,VALID,58.9694,VALID,603.855,VALID,28.3681,VALID,69,VALID,1.71484,
2005-03-17, 16:55:00,VALID,917.113,VALID,0,VALID,61.2201,VALID,617.966,VALID,28.1603,VALID,53,VALID,1.5908,
2005-03-17, 16:56:00,VALID,917.088,VALID,0,VALID,60.681,VALID,571.592,VALID,28.0245,VALID,41,VALID,1.92605,
2005-03-17, 16:57:00,VALID,917.068,VALID,0,VALID,60.1176,VALID,509.153,VALID,27.9702,VALID,24,VALID,1.43583,
2005-03-17, 16:58:00,VALID,917.066,VALID,0,VALID,58.7583,VALID,505.91,VALID,28.0788,VALID,57,VALID,1.46439,
2005-03-17, 16:59:00,VALID,917.052,VALID,0,VALID,58.2013,VALID,442.605,VALID,27.9242,VALID,74,VALID,1.66673,
2005-03-17, 17:00:00,VALID,917.054,VALID,0,VALID,59.8837,VALID,436.017,VALID,27.6011,VALID,49,VALID,1.41619,
2005-03-17, 17:01:00,VALID,917.048,VALID,0,VALID,62.0708,VALID,428.494,VALID,27.3844,VALID,42,VALID,1.71693,
2005-03-17, 17:02:00,VALID,917.041,VALID,0,VALID,61.3715,VALID,444.83,VALID,27.2547,VALID,37,VALID,1.2763,
2005-03-17, 17:03:00,VALID,917.021,VALID,0,VALID,61.4948,VALID,542.453,VALID,27.2608,VALID,28,VALID,1.5069,
2005-03-17, 17:04:00,VALID,917.012,VALID,0,VALID,60.8857,VALID,627.017,VALID,27.397,VALID,11,VALID,1.02653,
2005-03-17, 17:05:00,VALID,916.998,VALID,0,VALID,60.2194,VALID,649.449,VALID,27.5131,VALID,330,VALID,0.776042,
2005-03-17, 17:06:00,VALID,916.989,VALID,0,VALID,61.1527,VALID,517.813,VALID,27.7014,VALID,10,VALID,0.815039,
2005-03-17, 17:07:00,VALID,916.974,VALID,0,VALID,60.2168,VALID,594.312,VALID,28.0281,VALID,12,VALID,1.00449,
2005-03-17, 17:08:00,VALID,916.951,VALID,0,VALID,58.4518,VALID,557.209,VALID,28.2926,VALID,10,VALID,0.571221,
2005-03-17, 17:09:00,VALID,916.943,VALID,0,VALID,59.0673,VALID,507.149,VALID,28.4637,VALID,286,VALID,0.474888,
2005-03-17, 17:10:00,VALID,916.918,VALID,0,VALID,58.5472,VALID,569.69,VALID,28.6776,VALID,323,VALID,0.590216,
2005-03-17, 17:11:00,VALID,916.911,VALID,0,VALID,57.2209,VALID,647.105,VALID,28.7818,VALID,357,VALID,1.11825,
2005-03-17, 17:12:00,VALID,916.884,VALID,0,VALID,57.0823,VALID,520.225,VALID,28.4802,VALID,332,VALID,1.37481,
2005-03-17, 17:13:00,VALID,916.886,VALID,0,VALID,58.4328,VALID,418.645,VALID,28.2502,VALID,353,VALID,1.22104,
2005-03-17, 17:14:00,VALID,916.889,VALID,0,VALID,57.5477,VALID,422.687,VALID,28.2789,VALID,326,VALID,0.2587,
2005-03-17, 17:15:00,VALID,916.879,VALID,0,VALID,57.8059,VALID,494.838,VALID,28.2631,VALID,326,VALID,0.773065,
2005-03-17, 17:16:00,VALID,916.853,VALID,0,VALID,59.9371,VALID,710.784,VALID,28.2732,VALID,297,VALID,0.224466,
2005-03-17, 17:17:00,VALID,916.85,VALID,0,VALID,57.7804,VALID,708.067,VALID,28.4802,VALID,293,VALID,0.534702,
2005-03-17, 17:18:00,VALID,916.823,VALID,0,VALID,57.1408,VALID,640.211,VALID,28.674,VALID,168,VALID,0.575581,
2005-03-17, 17:19:00,VALID,916.815,VALID,0,VALID,59.6217,VALID,541.128,VALID,28.8778,VALID,257,VALID,0.53776,
2005-03-17, 17:20:00,VALID,916.806,VALID,0,VALID,56.388,VALID,578.265,VALID,28.7024,VALID,287,VALID,0.717773,
2005-03-17, 17:21:00,VALID,916.793,VALID,0,VALID,56.987,VALID,629.836,VALID,28.6078,VALID,287,VALID,0.736861,
2005-03-17, 17:22:00,VALID,916.77,VALID,0,VALID,57.3367,VALID,412.04,VALID,28.4666,VALID,308,VALID,0.804865,
2005-03-17, 17:23:00,VALID,916.743,VALID,0,VALID,58.2026,VALID,436.934,VALID,28.4091,VALID,12,VALID,1.60756,
2005-03-17, 17:24:00,VALID,916.745,VALID,0,VALID,58.6909,VALID,623.842,VALID,28.3235,VALID,336,VALID,1.06864,
2005-03-17, 17:25:00,VALID,916.727,VALID,0,VALID,61.1515,VALID,694.516,VALID,28.3368,VALID,336,VALID,0.415737,
2005-03-17, 17:26:00,VALID,916.712,VALID,0,VALID,59.7819,VALID,718.306,VALID,28.6211,VALID,297,VALID,0.365282,
2005-03-17, 17:27:00,VALID,916.68,VALID,0,VALID,58.4544,VALID,727.832,VALID,28.8257,VALID,238,VALID,0.430859,
2005-03-17, 17:28:00,VALID,916.647,VALID,0,VALID,61.8661,VALID,672.135,VALID,29.0162,VALID,279,VALID,0.634722,
2005-03-17, 17:29:00,VALID,916.625,VALID,0,VALID,60.817,VALID,728.715,VALID,29.3041,VALID,358,VALID,0.915551,
2005-03-17, 17:30:00,VALID,916.599,VALID,0,VALID,61.538,VALID,754.272,VALID,29.4792,VALID,105,VALID,0.809722,
2005-03-17, 17:31:00,VALID,916.582,VALID,0,VALID,62.7219,VALID,795.161,VALID,29.618,VALID,55,VALID,1.00967,
2005-03-17, 17:32:00,VALID,916.582,VALID,0,VALID,62.0403,VALID,801.156,VALID,29.7475,VALID,253,VALID,0.370722,
2005-03-17, 17:33:00,VALID,916.555,VALID,0,VALID,62.0581,VALID,817.457,VALID,29.8952,VALID,21,VALID,1.13587,
2005-03-17, 17:34:00,VALID,916.55,VALID,0,VALID,61.182,VALID,845.883,VALID,29.8474,VALID,327,VALID,1.18041,
2005-03-17, 17:35:00,VALID,916.541,VALID,0,VALID,63.1809,VALID,866.685,VALID,29.5213,VALID,16,VALID,0.507622,
2005-03-17, 17:36:00,VALID,916.516,VALID,0,VALID,63.8218,VALID,856.7,VALID,29.76,VALID,28,VALID,0.753158,
2005-03-17, 17:37:00,VALID,916.501,VALID,0,VALID,63.2522,VALID,832.366,VALID,29.9732,VALID,2,VALID,1.00418,
2005-03-17, 17:38:00,VALID,916.473,VALID,0,VALID,64.155,VALID,831.28,VALID,30.0056,VALID,13,VALID,1.42076,
2005-03-17, 17:39:00,VALID,916.468,VALID,0,VALID,62.7308,VALID,828.58,VALID,30.1354,VALID,25,VALID,0.953125,
2005-03-17, 17:40:00,VALID,916.445,VALID,0,VALID,61.5635,VALID,811.599,VALID,30.1095,VALID,2,VALID,1.52992,
2005-03-17, 17:41:00,VALID,916.432,VALID,0,VALID,60.0706,VALID,806.471,VALID,30.148,VALID,70,VALID,0.800611,
2005-03-17, 17:42:00,VALID,916.416,VALID,0,VALID,60.597,VALID,802.056,VALID,30.1728,VALID,44,VALID,0.781436,
2005-03-17, 17:43:00,VALID,916.371,VALID,0,VALID,62.2756,VALID,811.735,VALID,29.9053,VALID,10,VALID,1.71429,
2005-03-17, 17:44:00,VALID,916.366,VALID,0,VALID,64.6547,VALID,826.321,VALID,29.4907,VALID,16,VALID,1.4984,
2005-03-17, 17:45:00,VALID,916.342,VALID,0,VALID,65.1672,VALID,827.561,VALID,29.5252,VALID,302,VALID,0.978993,
2005-03-17, 17:46:00,VALID,916.318,VALID,0,VALID,64.7183,VALID,832.163,VALID,29.6679,VALID,15,VALID,1.11433,
2005-03-17, 17:47:00,VALID,916.328,VALID,0,VALID,65.8424,VALID,852.998,VALID,29.8027,VALID,24,VALID,1.07908,
2005-03-17, 17:48:00,VALID,916.318,VALID,0,VALID,62.2272,VALID,849.67,VALID,29.8067,VALID,337,VALID,1.14506,
2005-03-17, 17:49:00,VALID,916.298,VALID,0,VALID,62.727,VALID,857.787,VALID,29.5859,VALID,316,VALID,0.723514,
2005-03-17, 17:50:00,VALID,916.274,VALID,0,VALID,63.3653,VALID,870.709,VALID,29.6316,VALID,4,VALID,1.33612,
2005-03-17, 17:51:00,VALID,916.264,VALID,0,VALID,64.1118,VALID,858.924,VALID,29.7376,VALID,12,VALID,0.363181,
2005-03-17, 17:52:00,VALID,916.252,VALID,0,VALID,62.0327,VALID,862.134,VALID,30.0195,VALID,264,VALID,0.653888,
2005-03-17, 17:53:00,VALID,916.214,VALID,0,VALID,61.0129,VALID,860.69,VALID,29.861,VALID,343,VALID,1.46715,
2005-03-17, 17:54:00,VALID,916.189,VALID,0,VALID,61.1985,VALID,865.411,VALID,29.8415,VALID,337,VALID,0.686756,
2005-03-17, 17:55:00,VALID,916.191,VALID,0,VALID,62.5223,VALID,886.179,VALID,30.0096,VALID,255,VALID,0.525781,
2005-03-17, 17:56:00,VALID,916.144,VALID,0,VALID,61.4312,VALID,888.658,VALID,30.1807,VALID,302,VALID,1.54762,
2005-03-17, 17:57:00,VALID,916.137,VALID,0,VALID,59.3547,VALID,890.441,VALID,30.1973,VALID,34,VALID,1.43216,
2005-03-17, 17:58:00,VALID,916.133,VALID,0,VALID,62.1268,VALID,884.311,VALID,30.0699,VALID,2,VALID,0.913542,
2005-03-17, 17:59:00,VALID,916.105,VALID,0,VALID,60.372,VALID,884.481,VALID,30.1185,VALID,130,VALID,1.22727,
2005-03-17, 18:00:00,VALID,916.106,VALID,0,VALID,61.6855,VALID,888.505,VALID,30.0991,VALID,217,VALID,0.750191,
2005-03-17, 18:01:00,VALID,916.088,VALID,0,VALID,62.994,VALID,886.467,VALID,30.2771,VALID,31,VALID,0.841933,
2005-03-17, 18:02:00,VALID,916.094,VALID,0,VALID,60.1647,VALID,870.047,VALID,30.4183,VALID,18,VALID,1.37279,
2005-03-17, 18:03:00,VALID,916.064,VALID,0,VALID,60.2245,VALID,867.89,VALID,30.4414,VALID,354,VALID,1.08557,
2005-03-17, 18:04:00,VALID,916.078,VALID,0,VALID,58.0653,VALID,870.234,VALID,30.4777,VALID,7,VALID,1.14276,
2005-03-17, 18:05:00,VALID,916.076,VALID,0,VALID,57.1497,VALID,852.132,VALID,30.4935,VALID,15,VALID,0.931402,
2005-03-17, 18:06:00,VALID,916.05,VALID,0,VALID,57.4155,VALID,843.251,VALID,30.6363,VALID,15,VALID,0.797805,
2005-03-17, 18:07:00,VALID,916.039,VALID,0,VALID,57.432,VALID,826.423,VALID,30.7205,VALID,12,VALID,1.09821,
2005-03-17, 18:08:00,VALID,916.064,VALID,0,VALID,59.0406,VALID,816.014,VALID,30.638,VALID,23,VALID,0.594308,
2005-03-17, 18:09:00,VALID,916.025,VALID,0,VALID,55.9353,VALID,811.276,VALID,30.8379,VALID,8,VALID,1.16655,
2005-03-17, 18:10:00,VALID,916.006,VALID,0,VALID,55.0732,VALID,800.51,VALID,30.7348,VALID,26,VALID,1.59446,
2005-03-17, 18:11:00,VALID,915.991,VALID,0,VALID,55.7967,VALID,783.207,VALID,30.4711,VALID,8,VALID,0.923209,
2005-03-17, 18:12:00,VALID,915.971,VALID,0,VALID,57.1942,VALID,751.911,VALID,30.329,VALID,20,VALID,1.24372,
2005-03-17, 18:13:00,VALID,915.98,VALID,0,VALID,56.7797,VALID,736.391,VALID,30.2093,VALID,67,VALID,0.87128,
2005-03-17, 18:14:00,VALID,915.925,VALID,0,VALID,58.4887,VALID,736.815,VALID,30.3058,VALID,64,VALID,1.09618,
2005-03-17, 18:15:00,VALID,915.903,VALID,0,VALID,58.8397,VALID,737.172,VALID,30.1728,VALID,17,VALID,1.69635,
2005-03-17, 18:16:00,VALID,915.943,VALID,0,VALID,59.6128,VALID,743.421,VALID,30.0045,VALID,349,VALID,0.88762,
2005-03-17, 18:17:00,VALID,915.931,VALID,0,VALID,56.6716,VALID,680.235,VALID,29.9685,VALID,245,VALID,0.879464,
2005-03-17, 18:18:00,VALID,915.922,VALID,0,VALID,56.7212,VALID,728.172,VALID,30.0846,VALID,7,VALID,0.731424,
2005-03-17, 18:19:00,VALID,915.933,VALID,0,VALID,56.1248,VALID,745.883,VALID,30.3115,VALID,330,VALID,0.509084,
2005-03-17, 18:20:00,VALID,915.909,VALID,0,VALID,55.55,VALID,519.495,VALID,30.4176,VALID,113,VALID,0.635352,
2005-03-17, 18:21:00,VALID,915.902,VALID,0,VALID,55.0986,VALID,607.982,VALID,30.4492,VALID,212,VALID,0.547222,
2005-03-17, 18:22:00,VALID,915.878,VALID,0,VALID,55.4267,VALID,712.261,VALID,30.5208,VALID,112,VALID,0.269259,
2005-03-17, 18:23:00,VALID,915.855,VALID,0,VALID,56.856,VALID,629.921,VALID,30.405,VALID,93,VALID,1.04859,
2005-03-17, 18:24:00,VALID,915.835,VALID,0,VALID,56.9692,VALID,573.375,VALID,30.0587,VALID,14,VALID,0.696075,
2005-03-17, 18:25:00,VALID,915.812,VALID,0,VALID,58.9262,VALID,463.679,VALID,29.6956,VALID,197,VALID,0.960175,
2005-03-17, 18:26:00,VALID,915.788,VALID,0,VALID,60.4165,VALID,413.772,VALID,29.6539,VALID,258,VALID,0.498698,
2005-03-17, 18:27:00,VALID,915.793,VALID,0,VALID,59.4704,VALID,436.492,VALID,29.573,VALID,323,VALID,0.761433,
2005-03-17, 18:28:00,VALID,915.784,VALID,0,VALID,60.2105,VALID,476.193,VALID,29.399,VALID,19,VALID,0.455171,
2005-03-17, 18:29:00,VALID,915.78,VALID,0,VALID,61.4655,VALID,599.678,VALID,29.3979,VALID,31,VALID,0.564931,
2005-03-17, 18:30:00,VALID,915.784,VALID,0,VALID,62.5871,VALID,606.131,VALID,29.4342,VALID,30,VALID,1.38586,
2005-03-17, 18:31:00,VALID,915.761,VALID,0,VALID,63.6413,VALID,680.337,VALID,29.4565,VALID,360,VALID,0.956364,
2005-03-17, 18:32:00,VALID,915.758,VALID,0,VALID,62.226,VALID,538.632,VALID,29.5406,VALID,207,VALID,0.797602,
2005-03-17, 18:33:00,VALID,915.742,VALID,0,VALID,60.1393,VALID,522.296,VALID,29.3472,VALID,239,VALID,0.898438,
2005-03-17, 18:34:00,VALID,915.69,VALID,0,VALID,60.5398,VALID,550.23,VALID,29.1847,VALID,144,VALID,0.539063,
2005-03-17, 18:35:00,VALID,915.68,VALID,0,VALID,61.9984,VALID,515.979,VALID,29.0618,VALID,341,VALID,0.715946,
2005-03-17, 18:36:00,VALID,915.66,VALID,0,VALID,62.7422,VALID,444.983,VALID,29.0755,VALID,33,VALID,0.676711,
2005-03-17, 18:37:00,VALID,915.652,VALID,0,VALID,62.4587,VALID,473.799,VALID,29.2214,VALID,276,VALID,0.388757,
2005-03-17, 18:38:00,VALID,915.635,VALID,0,VALID,61.6016,VALID,602.344,VALID,29.4252,VALID,266,VALID,0.647866,
2005-03-17, 18:39:00,VALID,915.596,VALID,0,VALID,61.8712,VALID,463.729,VALID,29.5817,VALID,79,VALID,0.748547,
2005-03-17, 18:40:00,VALID,915.605,VALID,0,VALID,61.3575,VALID,436.17,VALID,29.5881,VALID,59,VALID,0.533053,
2005-03-17, 18:41:00,VALID,915.584,VALID,0,VALID,62.3735,VALID,471.252,VALID,29.5832,VALID,40,VALID,0.656808,
2005-03-17, 18:42:00,VALID,915.549,VALID,0,VALID,61.2977,VALID,519.206,VALID,29.5763,VALID,3,VALID,0.610899,
2005-03-17, 18:43:00,VALID,915.544,VALID,0,VALID,61.2074,VALID,524.878,VALID,29.5925,VALID,26,VALID,0.720465,
2005-03-17, 18:44:00,VALID,915.529,VALID,0,VALID,58.9783,VALID,502.497,VALID,29.7899,VALID,26,VALID,1.05938,
2005-03-17, 18:45:00,VALID,915.541,VALID,0,VALID,58.3743,VALID,455.528,VALID,29.7402,VALID,333,VALID,1.19259,
2005-03-17, 18:46:00,VALID,915.497,VALID,0,VALID,58.8575,VALID,480.354,VALID,29.0299,VALID,258,VALID,0.868862,
2005-03-17, 18:47:00,VALID,915.503,VALID,0,VALID,60.1329,VALID,459.994,VALID,28.8001,VALID,209,VALID,0.479959,
2005-03-17, 18:48:00,VALID,915.486,VALID,0,VALID,61.4363,VALID,384.684,VALID,28.9644,VALID,98,VALID,0.730196,
2005-03-17, 18:49:00,VALID,915.478,VALID,0,VALID,63.2293,VALID,330.447,VALID,29.1302,VALID,45,VALID,1.03993,
2005-03-17, 18:50:00,VALID,915.489,VALID,0,VALID,62.8224,VALID,299.321,VALID,29.0295,VALID,52,VALID,0.548692,
2005-03-17, 18:51:00,VALID,915.498,VALID,0,VALID,62.8986,VALID,270.725,VALID,28.9712,VALID,146,VALID,0.870046,
2005-03-17, 18:52:00,VALID,915.482,VALID,0,VALID,63.5662,VALID,242.401,VALID,28.3857,VALID,191,VALID,1.34375,
2005-03-17, 18:53:00,VALID,915.485,VALID,0,VALID,64.6369,VALID,222.313,VALID,28.1496,VALID,179,VALID,0.911776,
2005-03-17, 18:54:00,VALID,915.478,VALID,0,VALID,65.5766,VALID,215.894,VALID,27.9268,VALID,149,VALID,1.06886,
2005-03-17, 18:55:00,VALID,915.462,VALID,0,VALID,67.3925,VALID,216.947,VALID,27.6494,VALID,148,VALID,0.732922,
2005-03-17, 18:56:00,VALID,915.448,VALID,0,VALID,68.9248,VALID,197.504,VALID,27.4014,VALID,104,VALID,1.46198,
2005-03-17, 18:57:00,VALID,915.448,VALID,0,VALID,70.9721,VALID,170.25,VALID,27.0059,VALID,93,VALID,1.07413,
2005-03-17, 18:58:00,VALID,915.446,VALID,0,VALID,71.4006,VALID,162.608,VALID,26.6962,VALID,130,VALID,1.07385,
2005-03-17, 18:59:00,VALID,915.436,VALID,0,VALID,70.5448,VALID,164.391,VALID,26.4343,VALID,172,VALID,0.896129,
2005-03-17, 19:00:00,VALID,915.421,VALID,0,VALID,70.9009,VALID,170.98,VALID,26.3244,VALID,173,VALID,0.935683,
2005-03-17, 19:01:00,VALID,915.392,VALID,0,VALID,71.4095,VALID,169.112,VALID,26.3186,VALID,170,VALID,1.4043,
2005-03-17, 19:02:00,VALID,915.362,VALID,0,VALID,70.9861,VALID,164.425,VALID,26.2281,VALID,154,VALID,1.15716,
2005-03-17, 19:03:00,VALID,915.322,VALID,0,VALID,71.9703,VALID,157.158,VALID,26.0991,VALID,142,VALID,1.35882,
2005-03-17, 19:04:00,VALID,915.274,VALID,0,VALID,72.0237,VALID,152.743,VALID,25.9537,VALID,142,VALID,1.72812,
2005-03-17, 19:05:00,VALID,915.266,VALID,0,VALID,72.8324,VALID,152.488,VALID,25.8153,VALID,133,VALID,1.69029,
2005-03-17, 19:06:00,VALID,915.255,VALID,0,VALID,73.6132,VALID,152.878,VALID,25.686,VALID,135,VALID,1.38993,
2005-03-17, 19:07:00,VALID,915.246,VALID,0,VALID,74.1752,VALID,150.314,VALID,25.6608,VALID,148,VALID,0.630335,
2005-03-17, 19:08:00,VALID,915.234,VALID,0,VALID,74.2375,VALID,150.45,VALID,25.6705,VALID,133,VALID,0.750744,
2005-03-17, 19:09:00,VALID,915.228,VALID,0,VALID,72.6302,VALID,144.524,VALID,25.6821,VALID,245,VALID,0.52691,
2005-03-17, 19:10:00,VALID,915.242,VALID,0,VALID,73.6272,VALID,131.924,VALID,25.7177,VALID,346,VALID,0.612909,
2005-03-17, 19:11:00,VALID,915.247,VALID,0,VALID,75.0679,VALID,119.698,VALID,25.879,VALID,18,VALID,0.847266,
2005-03-17, 19:12:00,VALID,915.236,VALID,0,VALID,73.5661,VALID,111.292,VALID,26.0057,VALID,14,VALID,1.14684,
2005-03-17, 19:13:00,VALID,915.238,VALID,0,VALID,72.3657,VALID,103.26,VALID,26.1227,VALID,24,VALID,0.479611,
2005-03-17, 19:14:00,VALID,915.235,VALID,0,VALID,72.0186,VALID,94.6342,VALID,26.1903,VALID,95,VALID,1.01656,
2005-03-17, 19:15:00,VALID,915.239,VALID,0,VALID,73.6386,VALID,88.538,VALID,26.0458,VALID,110,VALID,1.49673,
2005-03-17, 19:16:00,VALID,915.233,VALID,0,VALID,77.0109,VALID,84.4966,VALID,25.7946,VALID,80,VALID,1.73319,
2005-03-17, 19:17:00,VALID,915.252,VALID,0.2,VALID,81.5989,VALID,81.3552,VALID,25.3967,VALID,88,VALID,1.13681,
2005-03-17, 19:18:00,VALID,915.254,VALID,0.6,VALID,84.3379,VALID,79.0288,VALID,25.0157,VALID,117,VALID,1.64755,
2005-03-17, 19:19:00,VALID,915.237,VALID,0.6,VALID,84.3023,VALID,79.1137,VALID,24.4828,VALID,126,VALID,2.47053,
2005-03-17, 19:20:00,VALID,915.209,VALID,0.4,VALID,86.506,VALID,80.6589,VALID,23.8624,VALID,110,VALID,3.04092,
2005-03-17, 19:21:00,VALID,915.281,VALID,0.4,VALID,89.1331,VALID,82.7815,VALID,23.3587,VALID,113,VALID,2.55365,
2005-03-17, 19:22:00,VALID,915.282,VALID,0.4,VALID,91.6865,VALID,86.2117,VALID,23.0527,VALID,114,VALID,1.27191,
2005-03-17, 19:23:00,VALID,915.278,VALID,0.4,VALID,91.6369,VALID,90.4229,VALID,22.8075,VALID,97,VALID,1.44646,
2005-03-17, 19:24:00,VALID,915.285,VALID,0.6,VALID,92.9467,VALID,92.9531,VALID,22.6566,VALID,109,VALID,1.31414,
2005-03-17, 19:25:00,VALID,915.286,VALID,0.6,VALID,94.278,VALID,92.9191,VALID,22.469,VALID,103,VALID,1.26823,
2005-03-17, 19:26:00,VALID,915.291,VALID,1.2,VALID,95.069,VALID,89.6248,VALID,22.2884,VALID,102,VALID,1.23679,
2005-03-17, 19:27:00,VALID,915.325,VALID,1,VALID,95.645,VALID,83.7495,VALID,22.1102,VALID,93,VALID,1.30809,
2005-03-17, 19:28:00,VALID,915.332,VALID,1.4,VALID,97.0565,VALID,76.6005,VALID,21.9875,VALID,89,VALID,0.91806,
2005-03-17, 19:29:00,VALID,915.344,VALID,0.8,VALID,97.424,VALID,71.4044,VALID,21.8492,VALID,127,VALID,0.677326,
2005-03-17, 19:30:00,VALID,915.321,VALID,0.6,VALID,98.1386,VALID,68.246,VALID,21.7332,VALID,155,VALID,0.636446,
2005-03-17, 19:31:00,VALID,915.338,VALID,0.4,VALID,98.5544,VALID,67.4479,VALID,21.6888,VALID,162,VALID,0.277798,
2005-03-17, 19:32:00,VALID,915.358,VALID,1,VALID,99.2386,VALID,67.6177,VALID,21.7669,VALID,330,VALID,1.15815,
2005-03-17, 19:33:00,VALID,915.351,VALID,1.2,VALID,98.7261,VALID,68.3309,VALID,21.6929,VALID,301,VALID,1.07402,
2005-03-17, 19:34:00,VALID,915.355,VALID,1.6,VALID,99.0822,VALID,68.7893,VALID,21.5895,VALID,290,VALID,1.22024,
2005-03-17, 19:35:00,VALID,915.353,VALID,1.2,VALID,99.4764,VALID,69.9271,VALID,21.4641,VALID,269,VALID,0.904535,
2005-03-17, 19:36:00,VALID,915.311,VALID,1.6,VALID,99.8952,VALID,71.0648,VALID,21.3934,VALID,323,VALID,0.746875,
2005-03-17, 19:37:00,VALID,915.246,VALID,1.6,VALID,100,VALID,72.8647,VALID,21.4227,VALID,218,VALID,0.769176,
2005-03-17, 19:38:00,VALID,915.238,VALID,1.2,VALID,100,VALID,75.0383,VALID,21.4491,VALID,268,VALID,0.446378,
2005-03-17, 19:39:00,VALID,915.234,VALID,0.4,VALID,100,VALID,76.8892,VALID,21.4149,VALID,252,VALID,0.0112179,
2005-03-17, 19:40:00,VALID,915.234,VALID,0.2,VALID,100,VALID,77.3307,VALID,21.3576,VALID,318,VALID,0.366279,
2005-03-17, 19:41:00,VALID,915.238,VALID,0.4,VALID,100,VALID,77.3137,VALID,21.4133,VALID,360,VALID,0.882813,
2005-03-17, 19:42:00,VALID,915.235,VALID,0,VALID,100,VALID,76.4647,VALID,21.3888,VALID,17,VALID,1.22656,